Skip Page Navigation
NASA JPL Caltech
NASA Logo - Jet Propulsion Laboratory + View the NASA Portal
+ Center for Near-Earth Object Studies
JPL Home Earth Solar System Stars & Galaxies Technology
JPL Solar System Dynamics
BODIES ORBITS EPHEMERIDES TOOLS PHYSICAL DATA DISCOVERY FAQ SITE MAP
JPL Small-Body Database Browser
Search: [ help ]  
192966 (2000 CS140)
Classification: Jupiter Trojan          SPK-ID: 2192966
Ephemeris | Orbit Diagram | Orbital Elements | Mission Design | Physical Parameters | Discovery Circumstances ]

[ show orbit diagram ]
Orbital Elements at Epoch 2459200.5 (2020-Dec-17.0) TDB
Reference: JPL 23 (heliocentric ecliptic J2000)
 Element Value Uncertainty (1-sigma)   Units 
e .05664741747684141 6.9687e-08  
a 5.362707422967995 1.3853e-07 au
q 5.058923896772971 4.5794e-07 au
i 5.2986868720169 5.8302e-06 deg
node 300.1045861039808 6.5773e-05 deg
peri 74.54226156893941 8.1549e-05 deg
M 350.3599273782673 4.6043e-05 deg
tp 2459321.965344692773
(2021-Apr-17.46534469)
0.000579 TDB
period 4536.016045233771
12.42
0.00017576
4.812e-07
d
yr
n .07936479862726033 3.0752e-09 deg/d
Q 5.66649094916302 1.4637e-07 au
  Orbit Determination Parameters
   # obs. used (total)      504  
   data-arc span      9158 days (25.07 yr)  
   first obs. used      1995-10-19  
   last obs. used      2020-11-14  
   planetary ephem.      DE441  
   SB-pert. ephem.      SB441-N16  
   condition code      0  
   norm. resid. RMS      .52844  
   source      ORB  
   producer      Otto Matic  
   solution date      2021-Apr-13 22:18:18  

Additional Information
 Earth MOID = 4.06299 au 
 Jupiter MOID = .146535 au 
 T_jup = 2.989 
[ show covariance matrix ]

Ephemeris | Orbit Diagram | Orbital Elements | Mission Design | Physical Parameters | Discovery Circumstances ]

Physical Parameter Table
Parameter Symbol Value Units Sigma Reference Notes
absolute magnitude H 12.71   n/a E2021B55  
diameter diameter 11.726 km 1.183 urn:nasa:pds:neowise_diameters_albedos::2.0[jupiter_trojans] (http://adsabs.harvard.edu/abs/2011ApJ...742...40G)  
geometric albedo albedo 0.128   0.038 urn:nasa:pds:neowise_diameters_albedos::2.0[jupiter_trojans] (http://adsabs.harvard.edu/abs/2011ApJ...742...40G)  

192966 (2000 CS140)          Discovered 2000-Feb-06 by Spacewatch at Kitt Peak
Reference: 20081113/Numbers.arcLast Updated: 2008-11-17

Alternate Designations
 2000 CS140 = 2002 FW21 
Ephemeris | Orbit Diagram | Orbital Elements | Mission Design | Physical Parameters | Discovery Circumstances ]
ABOUT SSD CREDITS/AWARDS PRIVACY/COPYRIGHT GLOSSARY LINKS
FirstGov 2021-May-13 01:27 UT
(server date/time)  
NASA Home Page
Site Manager:   Ryan S. Park
Webmaster  Alan B. Chamberlin